Flag for Japan Weather past 2 weeks in Utsunomiya, Japan

Now
74 °F

Mild.


Feels Like: 75 °F
Forecast: 64 / 76 °F
Wind: 7 mph from Northeast

Location: Mito

Current Time: Aug 29, 2014 at 11:02:00 AM

Latest Report: Aug 29, 2014 at 10:00 AM


Visibility: N/A

Pressure: 30.02 "Hg

Humidity: 79%

Dew point: 68 °F

Location of UtsunomiyaLocation

Historic Weather in Utsunomiya — Graph

°F

Utsunomiya temperature yesterday

Maximum temperature yesterday: 71 °F (at 3:00 PM)
Minimum temperature yesterday: 65 °F (at 3:00 AM)
Average temperature yesterday: 68 °F

Past Weeks' High & Low Weather Summary

 TemperatureHumidityPressure
High94 °F (Aug 20, 12:00 PM)99% (Aug 15, 5:00 AM)30.02 "Hg (Aug 15, 5:00 AM)
Low65 °F (Aug 28, 3:00 AM)52% (Aug 24, 2:00 PM)29.69 "Hg (Aug 15, 5:00 PM)
Average77 °F84%29.90 "Hg
* Reported Aug 14 9:00 AM — Aug 29 9:00 AM, Utsunomiya, Weather by CustomWeather, © 2014

Note: Actual official high and low records may vary slightly from our data, if they occured in-between our weather recording intervals... More about our weather records

Advertising

Utsunomiya weather history for previous 24 hours

 ConditionsComfort  
Time TempWeatherWind HumidityBarometerVisibility
9:00 AM
Aug 29
74 °FOvercast.6 mph81%30.02 "Hg16 mi
8:00 AM71 °FMild.3 mph91%30.01 "HgN/A
7:00 AM69 °FMild.2 mph96%30.01 "HgN/A
6:00 AM68 °FMild.2 mph98%30.01 "HgN/A
5:00 AM68 °FMild.2 mph98%30.01 "HgN/A
4:00 AM68 °FMild.1 mph98%29.99 "HgN/A
3:00 AM68 °FLight rain. Overcast.2 mph98%29.99 "Hg6 mi
2:00 AM68 °FMild.3 mph98%29.99 "HgN/A
1:00 AM69 °FMild.6 mph97%29.99 "HgN/A
12:00 AM68 °FMild.7 mph97%30.00 "HgN/A
11:00 PM
Aug 28
68 °FMild.5 mph97%30.01 "HgN/A
10:00 PM68 °FMild.5 mph97%30.01 "HgN/A
9:00 PM68 °FLight rain. Overcast.6 mph97%30.01 "Hg6 mi
8:00 PM68 °FMild.5 mph97%30.01 "HgN/A
7:00 PM68 °FMild.7 mph96%30.00 "HgN/A
6:00 PM69 °FMild.5 mph93%29.98 "HgN/A
5:00 PM70 °FMild.7 mph90%29.98 "HgN/A
4:00 PM70 °FMild.8 mph86%29.98 "HgN/A
3:00 PM71 °FOvercast.6 mph84%29.98 "Hg9 mi
2:00 PM70 °FMild.8 mph82%29.98 "HgN/A
1:00 PM70 °FMild.8 mph90%29.98 "HgN/A
12:00 PM70 °FMild.8 mph90%29.98 "HgN/A
11:00 AM69 °FMild.6 mph94%30.01 "HgN/A
Weather by CustomWeather, © 2014

See weather overviewHow to use our weather pages